|
NORAD ID: 22020 Int'l Code: 1992-040D
Perigee: 973.7 km
Apogee: 38,800.8 km
Inclination: 64.0 °
Period: 705.8 minutes
Semi major axis: 26258 km
Launch date: July 8, 1992
Source: Commonwealth of Independent States (former USSR) (CIS)
Note: This is a ROCKET BODY
Two Line Element Set (TLE):
1 22020U 92040D 13140.92546853 -.00000321 00000-0 00000+0 0 1169
2 22020 063.9858 343.3603 7202903 211.3660 031.7574 02.04034668155529
Source:
NASA's NSSDC Master Catalog entry for SL-6 R/B(2)
|